Preview of NWS' New Version of Forecast
This preview is not operational and should not be used for support decisions.

Regional Weather Roundup (RWR)

Issued by National Weather Service (NWS)

                            
000
ASUS44 KMEG 211710
RWRTN 
TENNESSEE HOURLY STATE WEATHER ROUNDUP
NATIONAL WEATHER SERVICE MEMPHIS TN
1200 PM CDT SAT SEP 21 2019

TNZ002-004-019-021-049-052-054-088>092-211800-
WEST TENNESSEE
  
CITY           SKY/WX    TMP DP  RH WIND       PRES   REMARKS
MEMPHIS INTL   FAIR      87  59  38 S8        30.21F                  
NWS MEMPHIS      N/A     89 N/A N/A MISG        N/A                   
JACKSON        FAIR      86  61  42 S12G17    30.24F                  
DYERSBURG      FAIR      87  61  41 S9G17     30.22F                  
SOMERVILLE     SUNNY     86  59  39 S8G18     30.21F                  
UNION CITY     SUNNY     86  57  37 SW10G18   30.20F                  
BOLIVAR        MOSUNNY   86  61  42 SE10      30.22F                  
PARIS          SUNNY     86  57  37 S10G17    30.23F                  
HUNTINGDON     SUNNY     86  61  42 S9        30.23F                  
LEXINGTON      SUNNY     86  57  37 S10       30.24F                  
SELMER         SUNNY     86  59  39 VRB6G16   30.24F                  
SAVANNAH       SUNNY     86  59  39 SW10G17   30.24F                  
$$

TNZ008-025-027-028-033-062-065-066-211800-
NORTH MIDDLE TENNESSEE
  
CITY           SKY/WX    TMP DP  RH WIND       PRES   REMARKS
NASHVILLE      PTSUNNY   87  53  31 W9        30.27F                  
DICKSON        SUNNY     84  54  34 S7G17     30.25F                  
PORTLAND       SUNNY     84  57  39 SW7       30.27F                  
CLARKSVILLE    FAIR      86  55  34 SW7       30.24F                  
LEBANON        SUNNY     86  52  30 SW9       30.25F                  
SMYRNA         FAIR      86  57  37 SE7       30.28F                  
MURFREESBORO   SUNNY     84  55  37 CALM      30.26F                  
COOKEVILLE     SUNNY     84  52  32 S6        30.29F                  
LIVINGSTON     SUNNY     82  50  32 VRB3G14   30.30F                  
CROSSVILLE     FAIR      79  51  37 CALM      30.34F                  
ROCKWOOD       SUNNY     79  55  44 VRB7      30.33F                  
$$

TNZ061-075-076-078-094-096-097-211800-
SOUTH MIDDLE TENNESSEE
  
CITY           SKY/WX    TMP DP  RH WIND       PRES   REMARKS
LAWRENCEBURG   SUNNY     84  55  37 S9G15     30.28F                  
LEWISBURG      SUNNY     86  55  35 S9        30.27F                  
FAYETTEVILLE   SUNNY     82  55  39 SW6G15    30.29S                  
TULLAHOMA      SUNNY     82  55  39 SW7G13    30.29F                  
WINCHESTER     SUNNY     84  52  32 W6        30.29F                  
MCMINNVILLE    SUNNY     84  54  34 SW6G15    30.29F                  
COLUMBIA       SUNNY     84  52  32 S9        30.25F                  
SHELBYVILLE    SUNNY     84  55  37 SE6G13    30.28F                  
$$

TNZ017-018-042-046-047-211800-
NORTHEAST TENNESSEE
  
CITY           SKY/WX    TMP DP  RH WIND       PRES   REMARKS
TRI CITIES     FAIR      80  60  50 CALM      30.33F                  
ELIZABETHTON   FAIR      82  61  47 NW9       30.32F                  
GREENEVILLE    SUNNY     79  57  47 CALM      30.33F                  
$$

TNZ012-013-036-069-073-074-211800-
CENTRAL EAST TENNESSEE
  
CITY           SKY/WX    TMP DP  RH WIND       PRES   REMARKS
KNOXVILLE      FAIR      81  54  39 NW3       30.30F                  
OAK RIDGE      FAIR      81  56  42 CALM      30.32F                  
DOWNTOWN KNOXV SUNNY     82  55  39 NW3       30.30F                  
GATLINBURG     SUNNY     84  59  42 VRB5      30.29F                  
MORRISTOWN     SUNNY     81  55  41 VRB6G12   30.31F                  
JACKSBORO      SUNNY     82  59  44 CALM      30.34F                  
$$

TNZ083-085-099-211800-
SOUTHEAST TENNESSEE
  
CITY           SKY/WX    TMP DP  RH WIND       PRES   REMARKS
CHATTANOOGA    FAIR      84  58  40 VRB6      30.30F                  
$$

SKY/WX REPORTED AS FAIR MEANS FEW OR NO CLOUDS BELOW
12 THOUSAND FEET.